Zurück zum Katalog

COSMOS 2251 DEB

AktivLEO
NORAD 35645·DEBRIS·🇷🇺 Russia

Gestartet Jun 16, 1993 von Plesetsk Cosmodrome

Loading…

Nächste Überflüge (nächste 24 Stunden)

TLE

AktuellSource: Space-Track

Epoche: Sep 13, 2026, 12:17 UTC

1 35645U 93036ANL 26256.51197124  .00002735  00000-0  72144-3 0  9993
2 35645  73.9623 291.8568 0066854  21.0185 339.3698 14.48122811907469

Verfolge COSMOS 2251 DEB in Echtzeit mit AllMySat

Download on the App Store